GFSNIL_prec_precacc24_069.txt.gz
Total_Precipitation_Accumulation
0.23 0.31 0.37 0.36 0.30 0.19 0.21 0.24 0.39 0.52 0.54 0.46 0.35 0.33 0.33 0.34 0.35 0.28 0.21 0.19 0.16 0.12
0.31 0.37 0.30 0.34 0.56 0.41 0.37 0.27 0.37 0.47 0.39 0.40 0.36 0.38 0.34 0.23 0.17 0.16 0.17 0.17 0.16 0.09
0.22 0.38 0.47 0.78 1.08 1.22 0.98 0.74 0.47 0.50 0.45 0.34 0.24 0.22 0.18 0.16 0.13 0.11 0.11 0.09 0.05 0.02
0.36 0.56 0.89 0.85 1.16 0.94 0.89 0.94 0.77 0.48 0.41 0.22 0.24 0.23 0.16 0.13 0.10 0.08 0.06 0.04 0.03 0.01
1.04 1.20 1.10 1.37 1.94 1.32 0.95 0.68 0.47 0.29 0.16 0.12 0.13 0.11 0.08 0.08 0.08 0.06 0.04 0.03 0.03 0.02
1.47 0.95 0.57 0.42 0.34 0.30 0.21 0.13 0.07 0.06 0.08 0.09 0.10 0.14 0.16 0.14 0.09 0.06 0.04 0.03 0.03 0.03
0.59 0.58 0.36 0.29 0.20 0.12 0.10 0.12 0.06 0.07 0.08 0.10 0.12 0.13 0.11 0.07 0.03 0.01 0.01 0.00 0.00 0.00
0.18 0.16 0.14 0.13 0.07 0.05 0.04 0.04 0.05 0.07 0.11 0.09 0.07 0.07 0.05 0.02 0.01 0.01 0.01 0.01 0.01 0.00
0.06 0.08 0.08 0.07 0.07 0.03 0.03 0.06 0.09 0.12 0.12 0.08 0.05 0.08 0.04 0.01 0.00 0.00 0.00 0.00 0.00 0.00
0.08 0.06 0.04 0.04 0.04 0.04 0.07 0.14 0.16 0.17 0.12 0.05 0.02 0.03 0.01 0.00 0.00 0.00 0.00 0.00 0.00 0.00
0.06 0.05 0.03 0.02 0.05 0.11 0.18 0.20 0.13 0.05 0.02 0.01 0.01 0.01 0.00 0.00 0.00 0.00 0.00 0.00 0.00 0.00
0.02 0.03 0.03 0.09 0.16 0.16 0.09 0.04 0.02 0.02 0.00 0.00 0.00 0.00 0.00 0.00 0.00 0.00 0.00 0.00 0.00 0.00
0.02 0.08 0.12 0.09 0.03 0.01 0.01 0.02 0.01 0.00 0.00 0.00 0.00 0.00 0.00 0.00 0.00 0.00 0.00 0.00 0.00 0.00
0.03 0.01 0.00 0.01 0.01 0.01 0.01 0.00 0.00 0.00 0.00 0.00 0.00 0.00 0.00 0.00 0.00 0.00 0.00 0.00 0.00 0.00

GFSNIL_prec_precacc24_072.txt.gz
Total_Precipitation_Accumulation
0.15 0.21 0.30 0.31 0.30 0.19 0.21 0.24 0.38 0.51 0.52 0.43 0.32 0.33 0.36 0.38 0.41 0.38 0.29 0.22 0.17 0.14
0.18 0.23 0.16 0.26 0.54 0.40 0.36 0.26 0.32 0.37 0.35 0.39 0.35 0.39 0.51 0.48 0.35 0.23 0.18 0.18 0.17 0.11
0.13 0.27 0.37 0.70 1.03 1.18 0.96 0.72 0.45 0.52 0.51 0.36 0.24 0.23 0.23 0.24 0.19 0.13 0.11 0.10 0.06 0.03
0.30 0.48 0.82 0.78 1.11 0.91 0.88 0.94 0.80 0.60 0.61 0.50 0.40 0.29 0.22 0.19 0.16 0.11 0.07 0.04 0.03 0.01
0.93 1.12 1.05 1.33 1.91 1.30 0.95 0.70 0.47 0.32 0.24 0.21 0.22 0.20 0.13 0.12 0.11 0.09 0.06 0.04 0.03 0.03
1.41 0.92 0.55 0.41 0.34 0.30 0.23 0.16 0.09 0.07 0.08 0.10 0.11 0.16 0.17 0.16 0.14 0.09 0.07 0.04 0.04 0.04
0.56 0.57 0.36 0.29 0.23 0.24 0.21 0.19 0.13 0.11 0.12 0.11 0.12 0.13 0.12 0.09 0.06 0.05 0.05 0.03 0.01 0.01
0.18 0.16 0.14 0.14 0.08 0.07 0.04 0.04 0.07 0.10 0.14 0.13 0.09 0.09 0.07 0.03 0.04 0.05 0.06 0.04 0.01 0.00
0.12 0.13 0.10 0.08 0.09 0.06 0.06 0.08 0.07 0.08 0.11 0.10 0.08 0.15 0.08 0.04 0.02 0.02 0.03 0.01 0.01 0.00
0.10 0.09 0.10 0.06 0.07 0.12 0.12 0.14 0.15 0.18 0.15 0.09 0.05 0.09 0.04 0.05 0.02 0.03 0.02 0.02 0.01 0.00
0.07 0.07 0.05 0.04 0.06 0.10 0.17 0.21 0.16 0.09 0.06 0.05 0.05 0.06 0.03 0.03 0.01 0.02 0.01 0.00 0.00 0.00
0.03 0.04 0.05 0.07 0.11 0.10 0.10 0.07 0.05 0.05 0.03 0.03 0.05 0.06 0.03 0.01 0.00 0.00 0.00 0.00 0.00 0.00
0.01 0.02 0.03 0.04 0.03 0.02 0.02 0.04 0.04 0.04 0.03 0.06 0.04 0.05 0.02 0.01 0.00 0.00 0.00 0.00 0.00 0.00
0.00 0.00 0.01 0.01 0.02 0.02 0.03 0.03 0.04 0.03 0.02 0.03 0.03 0.02 0.01 0.00 0.00 0.00 0.00 0.00 0.00 0.00

GFSNIL_prec_precacc24_075.txt.gz
Total_Precipitation_Accumulation
0.12 0.17 0.20 0.18 0.22 0.16 0.18 0.22 0.38 0.51 0.50 0.41 0.31 0.32 0.36 0.38 0.41 0.39 0.31 0.24 0.19 0.15
0.13 0.13 0.03 0.13 0.41 0.31 0.33 0.26 0.31 0.36 0.34 0.39 0.35 0.38 0.51 0.48 0.36 0.25 0.21 0.19 0.18 0.13
0.07 0.18 0.24 0.57 0.91 1.10 0.91 0.70 0.44 0.52 0.50 0.36 0.23 0.22 0.23 0.24 0.21 0.18 0.15 0.13 0.08 0.05
0.23 0.38 0.71 0.67 1.02 0.85 0.85 0.93 0.79 0.59 0.59 0.50 0.41 0.34 0.29 0.23 0.19 0.16 0.11 0.07 0.06 0.04
0.80 0.99 0.94 1.25 1.86 1.27 0.94 0.69 0.46 0.31 0.23 0.23 0.27 0.29 0.21 0.17 0.15 0.15 0.13 0.12 0.10 0.07
1.32 0.83 0.48 0.36 0.32 0.30 0.22 0.16 0.09 0.06 0.07 0.07 0.10 0.16 0.25 0.29 0.27 0.22 0.14 0.12 0.11 0.10
0.48 0.49 0.32 0.27 0.23 0.24 0.21 0.19 0.13 0.11 0.11 0.11 0.12 0.14 0.12 0.10 0.08 0.07 0.07 0.08 0.09 0.08
0.18 0.15 0.13 0.14 0.08 0.07 0.04 0.04 0.07 0.09 0.13 0.15 0.12 0.12 0.11 0.06 0.05 0.06 0.08 0.07 0.06 0.05
0.12 0.13 0.10 0.08 0.09 0.06 0.05 0.07 0.07 0.07 0.10 0.09 0.09 0.17 0.11 0.06 0.03 0.04 0.05 0.04 0.04 0.06
0.10 0.09 0.10 0.08 0.08 0.13 0.11 0.11 0.10 0.11 0.10 0.07 0.07 0.13 0.07 0.07 0.03 0.05 0.04 0.04 0.03 0.02
0.07 0.07 0.05 0.05 0.05 0.08 0.12 0.12 0.09 0.07 0.09 0.09 0.10 0.12 0.06 0.05 0.01 0.03 0.03 0.03 0.03 0.02
0.03 0.04 0.04 0.05 0.08 0.05 0.07 0.09 0.07 0.06 0.05 0.06 0.09 0.11 0.06 0.05 0.03 0.05 0.05 0.05 0.03 0.01
0.01 0.01 0.03 0.03 0.03 0.03 0.04 0.06 0.06 0.06 0.05 0.10 0.07 0.12 0.08 0.08 0.06 0.08 0.06 0.02 0.01 0.02
0.01 0.02 0.03 0.03 0.02 0.03 0.04 0.05 0.05 0.05 0.05 0.08 0.09 0.11 0.11 0.09 0.07 0.06 0.02 0.00 0.00 0.00

GFSNIL_prec_precacc24_081.txt.gz
Total_Precipitation_Accumulation
0.06 0.12 0.19 0.17 0.18 0.11 0.13 0.12 0.18 0.26 0.32 0.27 0.24 0.32 0.41 0.46 0.48 0.47 0.36 0.30 0.23 0.18
0.05 0.06 0.01 0.10 0.37 0.25 0.25 0.18 0.22 0.25 0.23 0.25 0.20 0.29 0.48 0.52 0.37 0.27 0.24 0.23 0.20 0.16
0.03 0.12 0.20 0.51 0.81 1.00 0.83 0.64 0.36 0.39 0.34 0.22 0.14 0.16 0.18 0.22 0.20 0.18 0.13 0.15 0.12 0.09
0.14 0.33 0.66 0.61 0.95 0.79 0.80 0.89 0.75 0.55 0.54 0.45 0.36 0.27 0.22 0.18 0.16 0.12 0.13 0.12 0.11 0.10
0.76 0.92 0.87 1.20 1.81 1.24 0.92 0.68 0.45 0.29 0.21 0.20 0.22 0.24 0.17 0.13 0.12 0.14 0.16 0.18 0.23 0.25
1.28 0.78 0.43 0.32 0.29 0.28 0.21 0.15 0.08 0.05 0.05 0.06 0.06 0.08 0.16 0.23 0.24 0.26 0.24 0.23 0.26 0.29
0.45 0.47 0.30 0.26 0.22 0.23 0.20 0.18 0.12 0.10 0.10 0.08 0.06 0.07 0.07 0.08 0.08 0.09 0.13 0.17 0.20 0.19
0.17 0.14 0.13 0.13 0.08 0.07 0.04 0.04 0.07 0.09 0.11 0.12 0.10 0.11 0.09 0.07 0.07 0.07 0.08 0.08 0.07 0.05
0.11 0.13 0.10 0.09 0.10 0.06 0.05 0.07 0.06 0.06 0.07 0.06 0.07 0.15 0.10 0.06 0.04 0.04 0.06 0.05 0.05 0.07
0.10 0.09 0.10 0.08 0.09 0.14 0.14 0.12 0.09 0.09 0.07 0.07 0.06 0.12 0.07 0.08 0.04 0.06 0.07 0.07 0.06 0.06
0.07 0.07 0.05 0.05 0.04 0.07 0.12 0.13 0.10 0.09 0.11 0.10 0.11 0.14 0.09 0.10 0.03 0.04 0.05 0.06 0.06 0.08
0.03 0.04 0.04 0.05 0.07 0.05 0.07 0.09 0.08 0.09 0.09 0.09 0.12 0.19 0.13 0.11 0.05 0.08 0.09 0.10 0.14 0.18
0.01 0.01 0.03 0.03 0.03 0.03 0.04 0.07 0.06 0.07 0.07 0.16 0.11 0.22 0.16 0.13 0.07 0.10 0.12 0.12 0.14 0.23
0.01 0.02 0.03 0.05 0.04 0.04 0.04 0.05 0.07 0.07 0.07 0.10 0.15 0.18 0.19 0.16 0.10 0.08 0.10 0.12 0.13 0.16

GFSNIL_prec_precacc24_084.txt.gz
Total_Precipitation_Accumulation
0.02 0.04 0.01 0.07 0.05 0.04 0.05 0.07 0.13 0.22 0.30 0.26 0.20 0.20 0.27 0.28 0.23 0.31 0.32 0.34 0.27 0.20
0.03 0.04 0.00 0.08 0.29 0.16 0.18 0.16 0.18 0.23 0.22 0.23 0.17 0.18 0.33 0.42 0.31 0.26 0.24 0.21 0.20 0.16
0.01 0.09 0.15 0.28 0.66 0.89 0.78 0.59 0.33 0.38 0.34 0.22 0.12 0.11 0.13 0.20 0.20 0.17 0.12 0.13 0.12 0.12
0.07 0.08 0.37 0.51 0.86 0.71 0.75 0.87 0.74 0.55 0.53 0.43 0.33 0.24 0.19 0.16 0.14 0.12 0.12 0.11 0.11 0.11
0.51 0.80 0.79 1.13 1.76 1.21 0.91 0.67 0.44 0.28 0.18 0.16 0.17 0.19 0.16 0.12 0.12 0.14 0.16 0.18 0.25 0.25
1.06 0.74 0.38 0.28 0.27 0.27 0.20 0.14 0.06 0.04 0.05 0.05 0.05 0.08 0.16 0.23 0.24 0.25 0.24 0.23 0.26 0.29
0.44 0.43 0.28 0.24 0.19 0.21 0.20 0.18 0.12 0.10 0.10 0.07 0.06 0.06 0.06 0.08 0.08 0.08 0.12 0.17 0.20 0.19
0.16 0.11 0.12 0.12 0.07 0.07 0.04 0.04 0.07 0.09 0.11 0.12 0.10 0.10 0.09 0.07 0.07 0.07 0.08 0.08 0.07 0.05
0.09 0.12 0.09 0.09 0.10 0.06 0.05 0.07 0.06 0.06 0.07 0.06 0.06 0.14 0.10 0.06 0.04 0.04 0.06 0.05 0.05 0.07
0.10 0.09 0.10 0.08 0.09 0.14 0.16 0.12 0.09 0.09 0.07 0.07 0.06 0.12 0.08 0.08 0.04 0.06 0.07 0.07 0.06 0.06
0.07 0.07 0.05 0.05 0.04 0.07 0.12 0.14 0.11 0.10 0.11 0.10 0.11 0.14 0.09 0.11 0.04 0.04 0.05 0.06 0.06 0.08
0.03 0.04 0.04 0.05 0.07 0.05 0.07 0.09 0.08 0.11 0.10 0.09 0.13 0.19 0.13 0.11 0.05 0.08 0.09 0.10 0.15 0.19
0.01 0.01 0.03 0.03 0.03 0.03 0.04 0.07 0.06 0.07 0.08 0.16 0.11 0.23 0.16 0.13 0.08 0.11 0.13 0.14 0.18 0.33
0.01 0.02 0.03 0.05 0.04 0.04 0.04 0.05 0.07 0.07 0.08 0.12 0.17 0.21 0.22 0.17 0.11 0.11 0.16 0.19 0.20 0.26

GFSNIL_prec_precacc24_090.txt.gz
Total_Precipitation_Accumulation
0.01 0.00 0.00 0.00 0.00 0.00 0.00 0.00 0.00 0.00 0.02 0.04 0.10 0.16 0.26 0.29 0.23 0.29 0.24 0.21 0.17 0.16
0.01 0.00 0.00 0.01 0.01 0.03 0.04 0.04 0.02 0.01 0.01 0.02 0.08 0.17 0.33 0.41 0.27 0.16 0.11 0.12 0.16 0.15
0.00 0.01 0.00 0.02 0.03 0.05 0.08 0.10 0.09 0.16 0.14 0.10 0.09 0.10 0.10 0.12 0.12 0.12 0.11 0.14 0.13 0.12
0.00 0.00 0.01 0.02 0.01 0.06 0.29 0.62 0.66 0.47 0.43 0.38 0.31 0.22 0.15 0.12 0.11 0.11 0.11 0.11 0.12 0.10
0.01 0.00 0.01 0.04 0.10 0.32 0.61 0.49 0.34 0.17 0.13 0.13 0.16 0.19 0.16 0.12 0.10 0.12 0.14 0.16 0.23 0.24
0.05 0.03 0.07 0.07 0.08 0.15 0.12 0.08 0.03 0.02 0.03 0.04 0.04 0.06 0.13 0.18 0.20 0.22 0.21 0.22 0.26 0.29
0.03 0.04 0.13 0.12 0.13 0.17 0.16 0.15 0.10 0.08 0.08 0.06 0.03 0.03 0.04 0.06 0.07 0.08 0.12 0.17 0.20 0.19
0.08 0.02 0.03 0.03 0.03 0.04 0.02 0.02 0.06 0.08 0.11 0.10 0.09 0.09 0.08 0.07 0.07 0.07 0.08 0.08 0.07 0.05
0.07 0.08 0.05 0.05 0.07 0.04 0.05 0.07 0.06 0.05 0.07 0.07 0.06 0.13 0.09 0.06 0.04 0.04 0.06 0.05 0.05 0.07
0.13 0.11 0.12 0.11 0.10 0.15 0.16 0.12 0.08 0.09 0.07 0.07 0.07 0.13 0.08 0.08 0.04 0.06 0.07 0.07 0.06 0.06
0.11 0.13 0.13 0.09 0.07 0.09 0.15 0.15 0.12 0.11 0.12 0.10 0.11 0.15 0.10 0.11 0.04 0.04 0.06 0.06 0.06 0.08
0.09 0.13 0.16 0.13 0.12 0.08 0.09 0.13 0.11 0.14 0.12 0.10 0.13 0.20 0.15 0.12 0.06 0.09 0.10 0.10 0.15 0.19
0.08 0.11 0.14 0.15 0.14 0.11 0.10 0.14 0.14 0.13 0.10 0.18 0.14 0.26 0.19 0.15 0.09 0.12 0.16 0.16 0.19 0.38
0.05 0.09 0.11 0.15 0.15 0.14 0.18 0.18 0.14 0.09 0.10 0.14 0.21 0.26 0.30 0.22 0.13 0.13 0.19 0.24 0.27 0.34

GFSNIL_prec_precacc24_093.txt.gz
Total_Precipitation_Accumulation
0.01 0.00 0.00 0.00 0.00 0.00 0.00 0.00 0.00 0.00 0.01 0.01 0.02 0.05 0.15 0.22 0.19 0.28 0.23 0.20 0.15 0.11
0.01 0.00 0.00 0.00 0.00 0.00 0.00 0.00 0.00 0.00 0.01 0.00 0.01 0.03 0.23 0.37 0.26 0.16 0.11 0.11 0.13 0.12
0.00 0.01 0.00 0.00 0.00 0.00 0.00 0.00 0.00 0.02 0.06 0.04 0.01 0.02 0.08 0.12 0.13 0.12 0.11 0.14 0.13 0.12
0.00 0.00 0.00 0.00 0.00 0.00 0.00 0.00 0.03 0.12 0.21 0.33 0.23 0.16 0.13 0.12 0.11 0.11 0.10 0.10 0.11 0.10
0.00 0.00 0.00 0.00 0.00 0.00 0.00 0.02 0.02 0.06 0.09 0.12 0.15 0.18 0.15 0.12 0.09 0.11 0.13 0.16 0.22 0.23
0.00 0.00 0.00 0.00 0.01 0.01 0.02 0.04 0.02 0.01 0.01 0.01 0.02 0.04 0.10 0.16 0.19 0.21 0.20 0.21 0.24 0.27
0.02 0.00 0.00 0.00 0.03 0.12 0.12 0.09 0.08 0.05 0.05 0.04 0.02 0.01 0.01 0.04 0.06 0.07 0.12 0.17 0.20 0.19
0.06 0.01 0.00 0.01 0.01 0.03 0.01 0.01 0.03 0.04 0.07 0.09 0.07 0.07 0.07 0.06 0.06 0.06 0.07 0.07 0.06 0.05
0.14 0.12 0.07 0.05 0.05 0.03 0.02 0.04 0.04 0.02 0.04 0.05 0.05 0.10 0.07 0.05 0.03 0.04 0.05 0.05 0.05 0.07
0.15 0.15 0.16 0.16 0.12 0.18 0.20 0.12 0.08 0.08 0.06 0.06 0.06 0.11 0.07 0.08 0.04 0.06 0.06 0.07 0.06 0.06
0.09 0.11 0.14 0.12 0.11 0.15 0.20 0.17 0.15 0.15 0.17 0.14 0.13 0.15 0.10 0.11 0.04 0.04 0.06 0.06 0.06 0.08
0.09 0.13 0.15 0.12 0.10 0.09 0.10 0.14 0.15 0.20 0.22 0.18 0.18 0.27 0.20 0.14 0.06 0.09 0.10 0.10 0.15 0.19
0.08 0.10 0.12 0.14 0.15 0.14 0.11 0.13 0.15 0.16 0.16 0.25 0.19 0.34 0.26 0.19 0.10 0.14 0.17 0.16 0.19 0.38
0.05 0.09 0.10 0.14 0.14 0.15 0.19 0.22 0.21 0.18 0.17 0.20 0.27 0.31 0.36 0.28 0.20 0.20 0.25 0.31 0.33 0.37

GFSNIL_prec_precacc24_096.txt.gz
Total_Precipitation_Accumulation
0.01 0.00 0.00 0.00 0.00 0.00 0.00 0.00 0.00 0.00 0.01 0.02 0.05 0.10 0.23 0.26 0.20 0.23 0.17 0.18 0.13 0.09
0.01 0.00 0.00 0.00 0.00 0.00 0.00 0.00 0.00 0.00 0.01 0.00 0.01 0.02 0.06 0.14 0.09 0.09 0.11 0.10 0.12 0.10
0.00 0.01 0.00 0.00 0.00 0.00 0.00 0.00 0.00 0.00 0.00 0.00 0.00 0.01 0.03 0.05 0.07 0.10 0.11 0.13 0.12 0.11
0.00 0.00 0.00 0.00 0.00 0.00 0.00 0.00 0.00 0.00 0.00 0.04 0.08 0.09 0.08 0.07 0.07 0.09 0.09 0.10 0.11 0.10
0.00 0.00 0.00 0.00 0.00 0.00 0.00 0.00 0.00 0.00 0.01 0.03 0.05 0.09 0.10 0.08 0.07 0.09 0.12 0.16 0.22 0.23
0.00 0.00 0.00 0.00 0.00 0.00 0.00 0.00 0.00 0.00 0.00 0.00 0.00 0.02 0.09 0.13 0.14 0.17 0.17 0.20 0.23 0.26
0.01 0.00 0.00 0.00 0.00 0.00 0.00 0.00 0.00 0.00 0.00 0.01 0.01 0.00 0.00 0.02 0.02 0.04 0.07 0.14 0.19 0.19
0.05 0.02 0.00 0.00 0.00 0.00 0.00 0.00 0.00 0.00 0.01 0.03 0.05 0.05 0.05 0.04 0.03 0.02 0.02 0.04 0.05 0.05
0.10 0.08 0.05 0.05 0.03 0.01 0.00 0.01 0.01 0.01 0.01 0.02 0.02 0.03 0.02 0.02 0.01 0.02 0.03 0.04 0.04 0.07
0.13 0.12 0.11 0.14 0.09 0.10 0.13 0.05 0.04 0.05 0.03 0.01 0.02 0.05 0.04 0.03 0.02 0.04 0.05 0.05 0.05 0.05
0.08 0.09 0.12 0.10 0.10 0.12 0.13 0.11 0.10 0.13 0.18 0.14 0.13 0.13 0.08 0.10 0.04 0.03 0.05 0.05 0.06 0.08
0.08 0.11 0.14 0.10 0.07 0.07 0.08 0.11 0.13 0.20 0.23 0.18 0.18 0.30 0.19 0.15 0.09 0.13 0.13 0.11 0.15 0.19
0.07 0.10 0.12 0.13 0.14 0.14 0.10 0.12 0.15 0.18 0.20 0.27 0.18 0.35 0.30 0.24 0.17 0.22 0.22 0.20 0.25 0.53
0.04 0.09 0.10 0.14 0.13 0.13 0.17 0.19 0.19 0.19 0.19 0.20 0.29 0.33 0.40 0.31 0.25 0.31 0.38 0.41 0.39 0.45

GFSNIL_prec_precacc24_099.txt.gz
Total_Precipitation_Accumulation
0.01 0.00 0.00 0.00 0.00 0.00 0.00 0.00 0.00 0.01 0.02 0.02 0.07 0.14 0.30 0.37 0.24 0.27 0.23 0.22 0.17 0.12
0.01 0.00 0.00 0.00 0.00 0.00 0.00 0.00 0.00 0.00 0.01 0.01 0.01 0.03 0.08 0.16 0.11 0.11 0.15 0.15 0.15 0.11
0.00 0.01 0.00 0.00 0.00 0.00 0.00 0.00 0.00 0.00 0.00 0.01 0.01 0.01 0.04 0.05 0.05 0.06 0.10 0.14 0.12 0.10
0.00 0.00 0.00 0.00 0.00 0.00 0.00 0.00 0.00 0.00 0.00 0.00 0.00 0.01 0.01 0.02 0.02 0.03 0.05 0.07 0.08 0.07
0.00 0.00 0.00 0.00 0.00 0.00 0.00 0.00 0.00 0.00 0.00 0.00 0.00 0.00 0.01 0.01 0.02 0.04 0.05 0.07 0.15 0.18
0.00 0.00 0.00 0.00 0.00 0.00 0.00 0.00 0.00 0.00 0.00 0.00 0.00 0.00 0.00 0.01 0.01 0.05 0.11 0.13 0.17 0.20
0.01 0.00 0.00 0.00 0.00 0.00 0.00 0.00 0.00 0.00 0.00 0.00 0.00 0.00 0.00 0.01 0.01 0.01 0.05 0.10 0.12 0.12
0.04 0.02 0.00 0.00 0.00 0.00 0.00 0.00 0.00 0.00 0.00 0.00 0.02 0.02 0.01 0.01 0.02 0.01 0.00 0.00 0.01 0.01
0.12 0.09 0.05 0.04 0.03 0.01 0.00 0.00 0.00 0.00 0.00 0.01 0.01 0.00 0.00 0.00 0.00 0.01 0.01 0.01 0.01 0.02
0.16 0.15 0.13 0.13 0.09 0.09 0.12 0.05 0.03 0.03 0.01 0.01 0.01 0.01 0.01 0.01 0.01 0.02 0.02 0.02 0.03 0.03
0.09 0.11 0.15 0.12 0.11 0.13 0.13 0.11 0.10 0.12 0.15 0.10 0.09 0.08 0.06 0.08 0.04 0.04 0.05 0.03 0.04 0.06
0.08 0.12 0.14 0.11 0.09 0.10 0.10 0.12 0.15 0.22 0.26 0.20 0.18 0.29 0.17 0.12 0.07 0.09 0.09 0.08 0.15 0.23
0.07 0.10 0.11 0.13 0.14 0.13 0.09 0.11 0.16 0.20 0.22 0.29 0.18 0.33 0.24 0.18 0.14 0.16 0.18 0.21 0.29 0.61
0.03 0.08 0.08 0.12 0.13 0.12 0.16 0.17 0.18 0.18 0.17 0.18 0.25 0.29 0.33 0.23 0.19 0.27 0.40 0.45 0.43 0.50

GFSNIL_prec_precacc24_102.txt.gz
Total_Precipitation_Accumulation
0.01 0.00 0.00 0.00 0.00 0.00 0.00 0.00 0.01 0.03 0.04 0.02 0.05 0.12 0.28 0.40 0.40 0.40 0.33 0.26 0.18 0.13
0.01 0.00 0.00 0.00 0.00 0.00 0.00 0.00 0.00 0.01 0.03 0.02 0.02 0.04 0.08 0.16 0.13 0.15 0.19 0.18 0.17 0.13
0.00 0.01 0.00 0.00 0.00 0.00 0.00 0.00 0.00 0.00 0.01 0.01 0.02 0.02 0.04 0.06 0.07 0.10 0.14 0.18 0.17 0.15
0.00 0.00 0.00 0.00 0.00 0.00 0.00 0.00 0.00 0.00 0.00 0.00 0.00 0.01 0.02 0.03 0.03 0.05 0.05 0.08 0.11 0.08
0.00 0.00 0.00 0.00 0.00 0.00 0.00 0.00 0.00 0.00 0.00 0.00 0.00 0.00 0.00 0.00 0.01 0.02 0.02 0.02 0.03 0.01
0.00 0.00 0.00 0.00 0.00 0.00 0.00 0.00 0.00 0.00 0.00 0.00 0.00 0.00 0.00 0.00 0.00 0.00 0.00 0.01 0.02 0.02
0.01 0.00 0.00 0.00 0.00 0.00 0.00 0.00 0.00 0.00 0.00 0.00 0.00 0.00 0.00 0.00 0.00 0.00 0.00 0.01 0.01 0.01
0.05 0.02 0.00 0.00 0.00 0.00 0.00 0.00 0.00 0.00 0.00 0.00 0.00 0.00 0.00 0.00 0.00 0.00 0.00 0.00 0.00 0.01
0.14 0.11 0.06 0.04 0.03 0.01 0.00 0.00 0.00 0.00 0.01 0.01 0.01 0.00 0.00 0.00 0.00 0.00 0.00 0.00 0.00 0.00
0.19 0.19 0.18 0.17 0.10 0.09 0.11 0.04 0.03 0.03 0.01 0.00 0.01 0.00 0.01 0.01 0.00 0.00 0.00 0.00 0.00 0.00
0.12 0.13 0.17 0.15 0.15 0.17 0.14 0.10 0.09 0.11 0.14 0.11 0.10 0.08 0.04 0.05 0.03 0.03 0.02 0.01 0.02 0.05
0.17 0.16 0.16 0.12 0.09 0.11 0.10 0.13 0.16 0.22 0.26 0.22 0.19 0.27 0.14 0.09 0.06 0.08 0.08 0.10 0.13 0.15
0.14 0.14 0.12 0.14 0.15 0.14 0.10 0.12 0.17 0.21 0.23 0.29 0.17 0.30 0.22 0.17 0.14 0.17 0.16 0.16 0.22 0.55
0.04 0.08 0.07 0.10 0.11 0.11 0.16 0.17 0.18 0.18 0.16 0.17 0.25 0.29 0.31 0.21 0.19 0.26 0.35 0.38 0.38 0.47

GFSNIL_prec_precacc24_105.txt.gz
Total_Precipitation_Accumulation
0.00 0.00 0.00 0.00 0.00 0.00 0.00 0.00 0.01 0.03 0.07 0.04 0.06 0.13 0.25 0.38 0.45 0.48 0.35 0.24 0.17 0.11
0.01 0.00 0.00 0.00 0.00 0.00 0.00 0.00 0.00 0.01 0.04 0.04 0.02 0.04 0.06 0.13 0.16 0.29 0.37 0.27 0.19 0.13
0.00 0.00 0.00 0.00 0.00 0.00 0.00 0.00 0.00 0.00 0.02 0.03 0.02 0.02 0.03 0.04 0.06 0.09 0.16 0.20 0.20 0.17
0.00 0.00 0.00 0.00 0.00 0.00 0.00 0.00 0.00 0.00 0.01 0.00 0.00 0.00 0.02 0.02 0.03 0.05 0.05 0.07 0.12 0.15
0.00 0.00 0.00 0.00 0.00 0.00 0.00 0.00 0.00 0.00 0.00 0.00 0.00 0.00 0.00 0.01 0.01 0.02 0.02 0.02 0.03 0.03
0.01 0.02 0.04 0.01 0.00 0.00 0.00 0.00 0.00 0.00 0.00 0.00 0.00 0.00 0.00 0.00 0.00 0.00 0.00 0.01 0.02 0.01
0.10 0.06 0.03 0.00 0.00 0.00 0.00 0.00 0.00 0.00 0.00 0.00 0.00 0.00 0.00 0.00 0.00 0.00 0.00 0.01 0.01 0.01
0.14 0.07 0.02 0.00 0.00 0.00 0.00 0.00 0.00 0.00 0.01 0.00 0.00 0.00 0.00 0.00 0.00 0.00 0.00 0.00 0.00 0.00
0.18 0.14 0.08 0.04 0.02 0.01 0.00 0.00 0.00 0.00 0.01 0.02 0.01 0.00 0.00 0.00 0.00 0.00 0.00 0.00 0.00 0.00
0.23 0.20 0.20 0.18 0.10 0.09 0.10 0.04 0.03 0.03 0.01 0.01 0.01 0.01 0.01 0.00 0.00 0.01 0.01 0.01 0.00 0.01
0.14 0.15 0.18 0.16 0.16 0.18 0.14 0.10 0.08 0.11 0.14 0.11 0.10 0.08 0.04 0.05 0.03 0.03 0.04 0.05 0.03 0.04
0.23 0.18 0.19 0.18 0.14 0.15 0.15 0.16 0.17 0.22 0.27 0.23 0.19 0.28 0.13 0.08 0.06 0.09 0.10 0.10 0.12 0.11
0.25 0.30 0.29 0.28 0.29 0.29 0.27 0.23 0.22 0.22 0.24 0.31 0.17 0.29 0.19 0.15 0.13 0.17 0.16 0.15 0.20 0.51
0.11 0.18 0.19 0.23 0.27 0.28 0.32 0.33 0.31 0.27 0.22 0.21 0.25 0.30 0.32 0.21 0.20 0.32 0.43 0.41 0.37 0.43

GFSNIL_prec_precacc24_108.txt.gz
Total_Precipitation_Accumulation
0.00 0.00 0.00 0.00 0.00 0.00 0.00 0.00 0.01 0.04 0.08 0.05 0.06 0.13 0.24 0.34 0.44 0.47 0.32 0.19 0.14 0.09
0.00 0.00 0.00 0.00 0.00 0.00 0.00 0.00 0.00 0.02 0.05 0.05 0.02 0.04 0.06 0.08 0.14 0.29 0.39 0.32 0.20 0.15
0.00 0.00 0.00 0.00 0.00 0.00 0.00 0.00 0.00 0.01 0.02 0.04 0.02 0.03 0.03 0.04 0.04 0.10 0.21 0.35 0.39 0.26
0.01 0.00 0.00 0.00 0.00 0.00 0.00 0.00 0.00 0.00 0.01 0.01 0.01 0.00 0.02 0.02 0.03 0.05 0.04 0.09 0.17 0.20
0.01 0.02 0.01 0.01 0.00 0.00 0.00 0.00 0.00 0.00 0.01 0.00 0.00 0.00 0.01 0.01 0.01 0.02 0.01 0.01 0.01 0.03
0.02 0.06 0.07 0.05 0.01 0.01 0.00 0.00 0.00 0.00 0.00 0.01 0.00 0.00 0.01 0.01 0.01 0.00 0.00 0.01 0.01 0.01
0.12 0.09 0.08 0.08 0.00 0.02 0.00 0.00 0.00 0.00 0.00 0.00 0.00 0.00 0.00 0.00 0.00 0.00 0.01 0.01 0.01 0.01
0.17 0.11 0.08 0.06 0.03 0.02 0.01 0.00 0.00 0.00 0.01 0.01 0.00 0.00 0.00 0.00 0.00 0.00 0.00 0.00 0.00 0.00
0.25 0.19 0.14 0.09 0.05 0.02 0.00 0.00 0.00 0.00 0.01 0.02 0.01 0.01 0.00 0.00 0.01 0.00 0.00 0.00 0.00 0.00
0.31 0.26 0.24 0.21 0.11 0.10 0.08 0.05 0.04 0.03 0.01 0.01 0.01 0.01 0.01 0.00 0.01 0.03 0.03 0.02 0.02 0.02
0.24 0.24 0.24 0.19 0.18 0.20 0.15 0.10 0.08 0.10 0.14 0.11 0.10 0.09 0.04 0.04 0.02 0.02 0.05 0.06 0.04 0.06
0.41 0.35 0.33 0.25 0.17 0.17 0.17 0.17 0.17 0.21 0.26 0.23 0.19 0.28 0.13 0.08 0.05 0.09 0.11 0.10 0.11 0.11
0.72 0.64 0.62 0.58 0.49 0.41 0.38 0.38 0.35 0.31 0.28 0.35 0.18 0.31 0.19 0.15 0.13 0.18 0.16 0.14 0.17 0.44
0.56 0.62 0.58 0.67 0.60 0.56 0.65 0.67 0.67 0.66 0.49 0.38 0.38 0.37 0.40 0.32 0.31 0.41 0.47 0.44 0.40 0.46

GFSNIL_prec_precacc24_111.txt.gz
Total_Precipitation_Accumulation
0.01 0.01 0.00 0.00 0.00 0.00 0.00 0.00 0.01 0.04 0.08 0.05 0.06 0.13 0.23 0.32 0.43 0.44 0.30 0.18 0.14 0.13
0.04 0.03 0.01 0.00 0.00 0.00 0.00 0.00 0.00 0.02 0.06 0.05 0.02 0.04 0.06 0.08 0.14 0.29 0.39 0.32 0.20 0.15
0.05 0.02 0.03 0.00 0.00 0.00 0.00 0.00 0.00 0.01 0.03 0.05 0.02 0.03 0.03 0.04 0.04 0.10 0.20 0.34 0.40 0.28
0.04 0.05 0.08 0.03 0.00 0.00 0.00 0.00 0.00 0.00 0.01 0.02 0.01 0.01 0.02 0.02 0.03 0.05 0.05 0.09 0.21 0.26
0.12 0.17 0.14 0.05 0.00 0.00 0.02 0.03 0.00 0.00 0.01 0.01 0.01 0.01 0.01 0.01 0.01 0.02 0.02 0.02 0.01 0.04
0.17 0.24 0.22 0.11 0.02 0.06 0.08 0.04 0.00 0.00 0.00 0.01 0.01 0.01 0.01 0.01 0.01 0.00 0.00 0.01 0.01 0.01
0.21 0.24 0.24 0.14 0.04 0.09 0.09 0.05 0.01 0.00 0.00 0.00 0.00 0.01 0.01 0.02 0.02 0.01 0.01 0.01 0.01 0.01
0.23 0.25 0.24 0.11 0.07 0.07 0.07 0.04 0.01 0.01 0.02 0.01 0.01 0.01 0.01 0.01 0.01 0.01 0.01 0.01 0.01 0.01
0.35 0.38 0.36 0.18 0.12 0.04 0.02 0.02 0.01 0.01 0.02 0.03 0.02 0.02 0.01 0.01 0.01 0.01 0.01 0.00 0.00 0.00
0.40 0.39 0.42 0.31 0.19 0.14 0.10 0.05 0.05 0.04 0.02 0.02 0.01 0.02 0.01 0.01 0.02 0.04 0.04 0.02 0.02 0.03
0.34 0.41 0.42 0.33 0.26 0.26 0.18 0.12 0.09 0.11 0.14 0.12 0.11 0.11 0.05 0.05 0.03 0.05 0.06 0.08 0.06 0.07
0.52 0.51 0.54 0.45 0.31 0.27 0.28 0.24 0.21 0.23 0.28 0.24 0.20 0.31 0.14 0.09 0.06 0.10 0.12 0.12 0.13 0.13
0.87 0.87 0.80 0.77 0.77 0.67 0.59 0.58 0.49 0.42 0.37 0.41 0.21 0.38 0.23 0.17 0.14 0.17 0.16 0.14 0.17 0.42
0.85 0.97 0.90 0.97 1.02 1.02 0.99 1.00 0.95 0.87 0.64 0.54 0.54 0.54 0.53 0.42 0.36 0.46 0.51 0.48 0.41 0.46

GFSNIL_prec_precacc24_114.txt.gz
Total_Precipitation_Accumulation
0.01 0.03 0.01 0.00 0.00 0.00 0.01 0.02 0.01 0.04 0.08 0.05 0.06 0.14 0.24 0.33 0.43 0.44 0.29 0.17 0.13 0.14
0.04 0.05 0.02 0.01 0.00 0.01 0.01 0.00 0.00 0.02 0.06 0.05 0.02 0.04 0.06 0.08 0.14 0.29 0.39 0.32 0.20 0.15
0.05 0.03 0.06 0.02 0.00 0.01 0.01 0.00 0.01 0.01 0.03 0.05 0.03 0.03 0.04 0.04 0.05 0.09 0.20 0.34 0.40 0.28
0.06 0.10 0.14 0.08 0.02 0.01 0.02 0.02 0.02 0.00 0.01 0.02 0.02 0.01 0.02 0.02 0.03 0.05 0.05 0.09 0.21 0.27
0.20 0.28 0.23 0.14 0.05 0.03 0.04 0.06 0.02 0.01 0.01 0.01 0.02 0.01 0.01 0.01 0.01 0.02 0.02 0.02 0.01 0.05
0.26 0.37 0.39 0.29 0.12 0.12 0.15 0.08 0.03 0.03 0.02 0.01 0.02 0.02 0.02 0.02 0.02 0.01 0.01 0.01 0.01 0.01
0.28 0.36 0.40 0.33 0.18 0.21 0.18 0.09 0.04 0.01 0.02 0.01 0.02 0.02 0.03 0.04 0.03 0.01 0.01 0.02 0.01 0.02
0.25 0.31 0.36 0.28 0.21 0.18 0.15 0.10 0.06 0.04 0.02 0.02 0.02 0.03 0.04 0.03 0.02 0.02 0.02 0.02 0.02 0.01
0.36 0.38 0.43 0.31 0.30 0.20 0.12 0.06 0.05 0.04 0.03 0.02 0.02 0.04 0.03 0.03 0.03 0.02 0.02 0.02 0.01 0.01
0.37 0.43 0.48 0.42 0.33 0.30 0.21 0.11 0.07 0.06 0.03 0.01 0.01 0.03 0.02 0.02 0.03 0.05 0.05 0.03 0.03 0.03
0.34 0.46 0.59 0.53 0.46 0.44 0.32 0.16 0.10 0.11 0.14 0.13 0.13 0.11 0.05 0.06 0.04 0.05 0.06 0.09 0.06 0.07
0.56 0.58 0.59 0.64 0.57 0.55 0.54 0.43 0.29 0.24 0.27 0.24 0.22 0.34 0.17 0.10 0.05 0.11 0.14 0.14 0.15 0.15
1.06 0.99 0.98 0.92 1.01 1.01 0.84 0.75 0.63 0.49 0.44 0.48 0.23 0.43 0.32 0.25 0.15 0.18 0.16 0.16 0.20 0.46
0.96 1.10 1.07 1.17 1.18 1.33 1.45 1.34 1.25 1.16 0.92 0.78 0.78 0.78 0.75 0.66 0.54 0.57 0.54 0.47 0.41 0.46

GFSNIL_prec_precacc24_117.txt.gz
Total_Precipitation_Accumulation
0.02 0.05 0.03 0.01 0.02 0.01 0.02 0.03 0.01 0.05 0.09 0.04 0.05 0.12 0.22 0.32 0.43 0.44 0.29 0.17 0.13 0.15
0.04 0.06 0.04 0.03 0.02 0.02 0.03 0.02 0.01 0.02 0.06 0.07 0.03 0.02 0.04 0.08 0.15 0.29 0.39 0.32 0.20 0.15
0.05 0.03 0.08 0.06 0.01 0.01 0.04 0.05 0.03 0.01 0.03 0.06 0.03 0.02 0.03 0.03 0.05 0.10 0.21 0.34 0.40 0.27
0.07 0.10 0.15 0.10 0.06 0.06 0.09 0.10 0.08 0.03 0.02 0.02 0.02 0.01 0.03 0.03 0.03 0.06 0.06 0.10 0.22 0.27
0.22 0.30 0.26 0.18 0.10 0.09 0.12 0.15 0.09 0.06 0.03 0.01 0.02 0.02 0.01 0.02 0.02 0.02 0.03 0.02 0.01 0.05
0.28 0.40 0.43 0.35 0.19 0.19 0.23 0.22 0.15 0.10 0.07 0.04 0.02 0.02 0.02 0.02 0.03 0.01 0.02 0.02 0.02 0.01
0.31 0.41 0.46 0.43 0.29 0.31 0.30 0.24 0.17 0.13 0.10 0.11 0.04 0.03 0.03 0.05 0.05 0.02 0.02 0.02 0.02 0.03
0.24 0.33 0.41 0.38 0.32 0.27 0.27 0.24 0.18 0.12 0.07 0.05 0.03 0.04 0.05 0.04 0.03 0.03 0.03 0.02 0.02 0.02
0.29 0.35 0.41 0.31 0.32 0.24 0.21 0.22 0.22 0.17 0.12 0.05 0.04 0.06 0.04 0.04 0.04 0.04 0.03 0.03 0.02 0.02
0.32 0.38 0.43 0.40 0.40 0.36 0.32 0.32 0.28 0.20 0.12 0.03 0.02 0.03 0.03 0.03 0.03 0.07 0.06 0.05 0.05 0.05
0.35 0.46 0.58 0.52 0.46 0.56 0.52 0.38 0.36 0.32 0.18 0.12 0.11 0.11 0.06 0.08 0.04 0.05 0.07 0.11 0.08 0.09
0.59 0.59 0.61 0.71 0.73 0.68 0.70 0.72 0.58 0.38 0.34 0.22 0.19 0.29 0.16 0.13 0.08 0.12 0.15 0.14 0.16 0.16
1.12 1.09 1.14 1.14 1.17 1.30 1.32 1.16 1.07 0.96 0.73 0.61 0.26 0.42 0.33 0.30 0.20 0.22 0.21 0.20 0.22 0.49
1.00 1.17 1.18 1.33 1.42 1.56 1.73 1.79 1.58 1.41 1.10 0.91 0.89 0.87 0.85 0.82 0.71 0.74 0.64 0.51 0.44 0.50

GFSNIL_prec_precacc24_120.txt.gz
Total_Precipitation_Accumulation
0.04 0.06 0.03 0.01 0.04 0.04 0.13 0.12 0.05 0.08 0.10 0.04 0.05 0.08 0.12 0.25 0.37 0.39 0.28 0.17 0.14 0.15
0.05 0.06 0.04 0.05 0.07 0.04 0.05 0.05 0.05 0.06 0.08 0.09 0.07 0.07 0.06 0.07 0.14 0.29 0.40 0.32 0.20 0.15
0.05 0.03 0.08 0.07 0.02 0.04 0.11 0.12 0.07 0.06 0.05 0.08 0.05 0.06 0.04 0.04 0.06 0.10 0.21 0.34 0.40 0.27
0.07 0.10 0.15 0.10 0.08 0.11 0.15 0.16 0.13 0.09 0.06 0.03 0.04 0.03 0.03 0.02 0.03 0.05 0.06 0.10 0.22 0.27
0.22 0.30 0.27 0.19 0.12 0.12 0.13 0.18 0.15 0.14 0.07 0.03 0.04 0.03 0.02 0.02 0.02 0.02 0.02 0.02 0.02 0.05
0.30 0.41 0.45 0.37 0.21 0.23 0.26 0.25 0.22 0.17 0.11 0.08 0.07 0.05 0.04 0.03 0.03 0.02 0.02 0.02 0.02 0.01
0.31 0.43 0.48 0.45 0.31 0.35 0.34 0.28 0.24 0.21 0.18 0.19 0.13 0.08 0.07 0.06 0.05 0.02 0.02 0.02 0.02 0.04
0.23 0.32 0.42 0.42 0.37 0.33 0.34 0.32 0.26 0.20 0.16 0.15 0.13 0.12 0.09 0.05 0.04 0.04 0.03 0.03 0.02 0.02
0.28 0.33 0.40 0.30 0.32 0.25 0.23 0.26 0.32 0.39 0.35 0.23 0.15 0.17 0.10 0.07 0.05 0.04 0.04 0.04 0.03 0.02
0.32 0.38 0.43 0.39 0.40 0.35 0.32 0.34 0.30 0.29 0.32 0.45 0.49 0.43 0.25 0.13 0.06 0.07 0.07 0.06 0.06 0.06
0.35 0.46 0.58 0.52 0.47 0.56 0.52 0.43 0.45 0.48 0.36 0.26 0.30 0.35 0.20 0.17 0.06 0.06 0.08 0.13 0.11 0.11
0.59 0.60 0.62 0.71 0.73 0.69 0.71 0.78 0.77 0.70 0.71 0.59 0.39 0.38 0.31 0.24 0.09 0.09 0.13 0.15 0.18 0.18
1.12 1.09 1.14 1.15 1.19 1.31 1.32 1.19 1.10 1.03 0.94 0.96 0.64 0.74 0.60 0.44 0.23 0.20 0.18 0.17 0.20 0.39
1.00 1.17 1.18 1.33 1.43 1.57 1.76 1.86 1.73 1.60 1.34 1.16 1.16 1.19 1.20 1.18 0.94 0.82 0.63 0.51 0.45 0.52

GFSNIL_prec_precacc24_123.txt.gz
Total_Precipitation_Accumulation
0.06 0.08 0.05 0.02 0.06 0.08 0.20 0.13 0.10 0.12 0.13 0.05 0.03 0.05 0.07 0.18 0.33 0.35 0.21 0.11 0.08 0.11
0.07 0.08 0.06 0.07 0.10 0.06 0.07 0.13 0.14 0.09 0.09 0.09 0.07 0.07 0.07 0.08 0.13 0.25 0.33 0.26 0.16 0.12
0.05 0.04 0.08 0.08 0.04 0.05 0.15 0.18 0.13 0.08 0.07 0.08 0.05 0.08 0.05 0.05 0.07 0.11 0.20 0.32 0.38 0.27
0.07 0.10 0.15 0.10 0.08 0.12 0.17 0.23 0.19 0.15 0.11 0.06 0.07 0.07 0.06 0.04 0.04 0.06 0.08 0.12 0.22 0.28
0.22 0.30 0.27 0.20 0.13 0.13 0.15 0.20 0.20 0.21 0.14 0.07 0.07 0.07 0.06 0.04 0.03 0.04 0.04 0.05 0.03 0.06
0.30 0.42 0.45 0.37 0.22 0.24 0.28 0.27 0.24 0.20 0.15 0.11 0.09 0.08 0.07 0.10 0.05 0.04 0.03 0.03 0.01 0.02
0.31 0.43 0.48 0.46 0.32 0.36 0.36 0.31 0.27 0.24 0.22 0.24 0.17 0.12 0.12 0.11 0.08 0.06 0.04 0.03 0.03 0.04
0.22 0.32 0.42 0.42 0.37 0.34 0.36 0.34 0.28 0.22 0.19 0.22 0.23 0.23 0.16 0.10 0.08 0.09 0.07 0.04 0.03 0.03
0.26 0.32 0.40 0.30 0.32 0.25 0.24 0.28 0.37 0.46 0.51 0.44 0.29 0.28 0.16 0.12 0.07 0.06 0.07 0.07 0.04 0.03
0.28 0.34 0.40 0.38 0.39 0.35 0.32 0.34 0.31 0.31 0.39 0.62 0.71 0.72 0.66 0.52 0.36 0.31 0.26 0.13 0.09 0.07
0.33 0.44 0.56 0.49 0.44 0.54 0.51 0.42 0.44 0.47 0.37 0.28 0.33 0.47 0.54 0.63 0.65 0.72 0.61 0.35 0.15 0.11
0.59 0.59 0.61 0.70 0.71 0.66 0.68 0.75 0.74 0.67 0.68 0.56 0.40 0.45 0.42 0.42 0.30 0.33 0.33 0.25 0.20 0.18
1.12 1.09 1.14 1.15 1.19 1.31 1.32 1.17 1.07 0.99 0.90 0.92 0.71 0.89 0.85 0.80 0.64 0.58 0.52 0.37 0.25 0.37
1.00 1.17 1.18 1.33 1.43 1.57 1.76 1.86 1.73 1.59 1.33 1.14 1.14 1.18 1.25 1.37 1.24 1.13 0.89 0.67 0.55 0.59